Terminal Aerodrome Forecast
Issued by NWS Wilmington, NC

Home | Current Version | Previous Version | Text Only | Print | Product List | Glossary On
Versions: 1 2 3 4 5 6 7 8 9 10 11 12 13 14 15 16 17 18 19 20 21
000
FTUS42 KILM 270500
TAFLBT
TAF
KLBT 270533Z 2706/2806 22003KT 6SM BR BKN060
      TEMPO 2706/2708 3SM BR
     FM271400 29015G22KT P6SM SCT050
     FM272300 32007KT P6SM SKC=

USA.gov is the U.S. government's official web portal to all federal, state and local government web resources and services.